Presure
144 119 137 92 142 150 158 151 141 178 186 191 225 220 252 253 197 241 243 262 277 320 337 559 539 491 455 443 444 458 490 519
139 107 141 166 129 172 174 173 182 181 190 220 217 246 220 194 241 234 256 264 305 314 561 512 449 431 431 445 462 475 490 509
165 105 162 77 170 173 180 181 192 200 212 218 242 263 195 237 238 243 250 277 310 345 495 435 430 430 440 451 431 427 455 478
170 166 124 172 129 166 181 189 199 212 235 245 233 245 238 239 243 245 268 288 311 519 436 427 425 433 439 411 402 411 427 451
179 179 179 178 124 179 213 210 206 216 216 264 198 232 233 238 238 250 262 283 305 453 426 400 415 429 419 400 399 402 418 437
177 178 180 159 200 204 200 196 216 215 218 190 212 227 231 234 231 251 263 278 297 434 414 392 414 428 402 393 390 396 409 427
204 209 174 185 202 203 205 194 235 262 205 227 234 226 227 227 223 251 262 277 287 431 398 398 418 427 394 385 383 391 404 418
192 98 188 198 201 203 189 207 261 180 192 228 219 220 222 223 226 250 256 273 280 423 392 399 422 426 390 379 376 384 397 410
177 179 219 197 199 236 255 273 185 241 231 225 222 208 229 228 236 247 259 273 278 313 390 387 421 427 388 375 373 379 389 406
222 210 211 198 233 260 182 180 246 241 220 221 209 218 220 223 229 237 244 273 279 288 397 375 415 426 389 378 372 377 384 399
207 196 185 226 210 217 188 246 240 223 209 215 208 220 218 221 229 238 240 272 280 284 409 383 407 417 398 384 374 378 382 396
179 204 216 202 219 212 255 181 226 218 215 213 210 212 210 216 223 234 243 270 280 284 341 393 377 408 411 385 379 381 383 397
217 184 214 267 176 259 249 231 217 213 210 201 215 217 213 205 223 235 241 265 280 286 306 414 377 406 398 402 386 390 392 405
199 225 270 205 254 233 238 214 215 215 202 214 207 205 212 207 222 233 242 266 281 283 290 383 390 392 405 398 404 412 397 391
205 195 246 161 262 242 222 220 213 201 210 206 204 202 208 207 224 230 246 268 280 279 281 312 398 393 410 405 413 422 414 257
221 258 184 188 255 237 220 210 204 202 207 202 212 214 206 213 223 232 256 275 279 276 281 296 352 377 405 418 408 415 426 256
274 175 286 263 237 212 205 206 201 205 194 206 207 202 211 218 225 239 263 280 279 275 280 288 313 404 388 414 411 419 357 251
233 296 281 246 232 224 211 202 202 205 214 204 198 213 215 220 231 251 271 282 279 272 276 284 293 325 403 396 415 417 352 242
198 265 258 232 222 207 203 206 198 208 200 200 210 209 216 228 243 261 288 284 281 268 276 284 287 305 337 409 405 415 420 318
Wind_Speed
95 58 85 43 92 104 110 101 94 125 132 133 119 119 94 93 109 100 103 101 100 103 107 40 33 29 30 29 29 33 34 35
90 60 91 110 82 118 121 121 127 125 131 118 114 101 112 109 95 100 100 99 104 106 38 33 38 36 32 28 24 22 21 18
105 55 110 27 115 119 123 126 128 124 118 111 96 72 109 91 96 100 100 101 107 111 38 45 40 33 27 21 13 12 8 5
107 109 68 113 72 109 122 125 122 113 104 90 90 81 86 90 93 97 92 104 110 38 50 44 37 30 23 16 13 12 7 3
107 109 111 114 67 88 109 111 111 104 100 64 106 80 83 87 92 92 92 105 110 53 49 48 38 28 20 15 12 10 6 6
105 107 110 94 110 105 108 108 99 95 98 95 91 79 83 85 89 89 94 106 110 57 49 48 37 26 18 14 12 9 6 10
105 100 70 101 101 102 99 99 81 60 83 77 70 76 79 82 86 88 95 106 107 56 53 47 34 24 16 12 11 9 9 15
93 38 95 93 97 96 92 89 58 89 93 66 71 74 78 79 82 87 94 105 104 56 54 47 32 23 15 11 11 10 11 18
91 89 71 92 94 72 68 47 85 57 58 63 66 72 74 77 79 87 97 104 102 104 54 50 33 23 14 10 10 11 13 18
58 70 69 84 63 61 74 82 51 51 57 60 65 70 72 75 76 82 87 103 101 100 52 51 35 25 15 10 11 12 16 21
55 56 78 60 75 68 78 50 46 53 58 59 64 67 69 73 77 83 84 102 99 97 50 47 38 26 16 12 10 14 16 21
55 53 60 72 63 65 40 75 45 51 54 58 62 65 66 70 76 80 88 101 96 94 78 43 41 27 18 14 11 12 16 20
43 79 49 48 75 38 35 39 46 48 52 56 61 64 65 65 77 83 87 98 92 90 86 39 38 28 20 14 12 11 14 18
55 50 47 66 39 44 33 41 43 46 51 55 58 60 66 65 76 83 87 95 88 85 82 61 38 30 19 13 11 9 15 30
46 61 45 53 30 31 34 36 41 46 51 54 58 60 64 65 76 81 92 92 84 80 76 76 42 32 21 13 10 6 13 106
46 43 55 59 28 26 33 35 41 46 50 54 58 62 62 69 76 83 91 87 78 74 71 69 71 40 25 16 10 8 9 105
42 63 23 28 25 32 36 36 42 46 49 53 58 59 65 71 77 86 87 78 73 69 67 64 68 38 31 20 12 7 38 99
43 25 21 22 24 27 30 36 42 47 50 53 55 64 67 72 80 86 83 70 68 64 62 60 59 68 33 26 17 11 33 90
35 23 23 21 25 27 31 36 41 47 48 52 59 62 68 75 84 83 75 64 62 60 59 58 54 57 67 29 21 14 10 66
Wind_Direction
294 298 302 311 306 307 308 309 312 309 311 313 315 315 319 320 322 320 320 320 322 331 326 329 327 326 319 309 296 283 275 266
294 292 300 298 299 302 303 306 306 311 311 315 314 316 316 322 321 320 322 327 337 335 341 342 338 332 324 317 310 300 293 282
290 293 296 325 299 301 302 303 305 309 312 315 316 322 322 322 322 322 324 336 342 340 351 342 341 337 336 338 339 330 320 281
288 291 299 296 306 301 301 303 306 311 312 314 318 323 324 324 324 326 335 348 347 355 346 350 349 350 355 351 347 355 6 80
287 289 292 294 307 304 302 305 308 314 316 322 321 322 326 326 329 332 340 351 352 351 350 350 353 358 2 359 5 12 40 107
288 291 293 296 298 299 301 307 312 315 311 324 320 324 327 329 332 339 348 354 356 352 352 353 356 2 6 14 24 31 70 124
288 293 302 297 298 301 306 312 313 320 324 322 327 327 329 332 335 344 353 356 357 354 355 358 1 8 15 29 38 53 101 137
289 307 295 296 300 304 312 311 317 323 319 324 325 328 331 335 338 350 355 359 359 356 358 2 6 13 24 44 59 76 111 141
289 293 294 297 300 305 316 317 323 320 323 329 330 331 333 338 344 354 358 0 0 360 0 3 11 20 33 57 79 99 117 141
291 290 292 300 305 317 323 321 318 323 325 332 330 332 336 341 346 353 355 1 1 2 3 3 13 24 38 69 93 115 133 144
284 295 299 309 305 309 314 316 320 321 325 332 332 334 341 343 350 356 357 2 1 2 7 6 14 24 41 76 104 126 142 152
287 299 300 296 306 315 315 321 320 325 331 333 335 337 341 345 349 356 360 2 1 3 5 9 11 22 39 70 100 133 150 158
310 297 299 316 319 310 315 319 321 330 333 333 337 339 343 346 350 356 358 0 1 2 5 15 11 21 32 58 91 127 146 159
298 314 317 310 312 317 315 319 326 334 332 337 337 341 344 346 350 355 357 359 2 3 6 14 14 20 28 43 73 121 146 164
306 304 312 328 311 311 313 324 332 333 334 336 337 342 343 347 350 355 356 358 2 3 6 13 16 18 29 45 66 96 138 176
314 315 322 316 307 310 322 330 333 335 335 337 338 343 343 348 351 355 355 357 1 4 5 11 19 16 28 40 61 96 120 179
318 311 302 302 306 317 329 334 334 335 338 339 341 342 346 349 351 353 355 357 1 5 6 11 19 18 23 35 53 63 179 183
320 310 294 306 321 330 339 335 335 338 341 342 341 345 346 349 351 351 354 357 0 4 6 10 17 24 25 30 40 57 180 188
315 309 303 321 336 338 337 335 339 341 342 341 343 344 346 348 349 349 355 358 359 3 4 9 16 23 27 33 37 45 54 188